Location: Tel Aviv
(32.0670°N, 34.7670°E)
Time: 12:09:55
(UTC+03:00)

Transit 2A - Pass Details

Date: 01 February 2022
Orbit: 598 x 960 km, 66.7° (Epoch: 20 May)

Event Time Altitude Azimuth Distance (km) Brightness Sun altitude
Rises 07:29:48 0° 160° (SSE) 3,435 10.2 9.9°
Reaches altitude 10° 07:33:08 10° 140° (SE) 2,563 10.3 10.5°
Maximum altitude 07:36:46 17° 102° (ESE) 2,173 10.2 11.2°
Drops below altitude 10° 07:40:32 10° 65° (ENE) 2,666 9.4 11.9°
Sets 07:44:04 0° 46° (NE) 3,638 9.7 12.5°
